Location: Sungai Dangang
(2.7500°N, 113.8333°E)
Time: 23:21:35
(UTC+00:00)

Meteor 1-4 Rocket - Pass Details

Date: 16 May 2021
Orbit: 447 x 499 km, 81.2° (Epoch: 15 June)

Event Time Altitude Azimuth Distance (km) Brightness Sun altitude
Rises 21:05:33 0° 10° (N) 2,534 6.6 -16.8°
Reaches altitude 10° 21:07:48 10° 20° (NNE) 1,648 5.8 -16.3°
Maximum altitude 21:11:03 32° 84° (E) 835 4.5 -15.5°
Drops below altitude 10° 21:14:16 10° 149° (SSE) 1,626 5.3 -14.8°
Sets 21:16:28 0° 159° (SSE) 2,494 6.2 -14.3°
